INTELSAT 902 (IS-902) (26900 NORAD) Tracking and Keplerian Element Data

This shows tracking and keplerian element data for the satellite.

Feedback or suggestion? Click here.




ElementValue
Catalog26900
NameINTELSAT 902 (IS-902)
Epoch Orbit6172
Epoch Day198.92648316
Epoch Year2018
RAAN56.5974
Inclination0.0105
Eccentricity0.0003023
Argument of Perigee67.062
Mean Anonmoly207.5557
Mean Motion1.00272553
Decay Rate1.3E-07
L11 26900U 01039A 18198.92648316 .00000013 00000-0 00000-0 0 9990
L22 26900 0.0105 56.5974 0003023 67.0620 207.5557 1.00272553 61722

Live tracking and technical data element details for INTELSAT 902 (IS-902) (NORAD 26900). INTELSAT 902 (IS-902) can be tracked NOW for your location showing map with azimuth and elevation plus other details from your city location.

Track the satellite on the map from your city or location and see movement details for azimuth, elevation, latitude, longitude, range, height, and movement on the map or in text.







IsCatalogInMostPopularTable: catalog: 26900, numindb: 57
Update: records affected: 1



GetName: 26900 INTELSAT 902 (IS-902)

Hit Count: updated at: Sat, 21 Jul 2018 07:45:16 GMT